Regional Weather Roundup
Issued by NWS Bismarck, ND

Home | Current Version | Previous Version | Graphics & Text | Print | Product List | Glossary On
Versions: 1 2 3 4 5 6 7 8 9 10 11 12 13 14 15 16 17 18 19 20 21 22 23 24 25 26 27 28 29 30 31 32 33 34 35 36 37 38 39 40 41 42 43 44 45 46 47 48 49 50
000
ASUS43 KBIS 201810
RWRBIS

NWR BROADCAST TEXT
NATIONAL WEATHER SERVICE BISMARCK ND
1200 PM CST TUE FEB 20 2018

NOTE: "FAIR" INDICATES FEW OR NO CLOUDS BELOW 12,000 FEET WITH NO
SIGNIFICANT WEATHER AND/OR OBSTRUCTIONS TO VISIBILITY.


CITY           SKY/WX    TMP DP  RH WIND       PRES   REMARKS
WILLISTON      FAIR       2  -5  72 W21       30.10F WCI -20
MINOT          FAIR       6  -3  66 W13       30.07F WCI -10
MINOT AFB      FLURRIES   7  -2  66 W12       30.06F WCI  -9
BISMARCK       FAIR      10   0  63 W13       30.15R WCI  -5
DICKINSON      FAIR       3  -4  72 W14       30.05S WCI -15
GARRISON         N/A      5  -3  69 W14       30.09S WCI -12
HETTINGER ARPT FAIR      -1  -7  75 W13       30.10S WCI -19
JAMESTOWN      FAIR       8   1  73 NW18      30.09S WCI -11
CARRINGTON     FAIR       5   0  78 NW17      30.11S WCI -14
HAZEN            N/A      5  -2  72 W14       30.14F WCI -12
LINTON           N/A      9  -2  61 NW15      30.15R WCI  -8
MANDAN         FAIR       5   0  78 NW13G18   30.12R WCI -12
OAKES            N/A      9   1  72 NW23      30.11S WCI -12
RUGBY          FAIR       5   0  78 W12       30.08S WCI -11
STANLEY        FAIR       3  -2  78 W17       30.06S WCI -17
TIOGA          FAIR       1  -2  85 W17       30.06S WCI -19
WATFORD CITY   FAIR       3  -4  72 W15       30.11S WCI -15
$$

CITY           SKY/WX    TMP DP  RH WIND       PRES   REMARKS
GRAND FORKS    LGT SNOW   9   3  77 NW15      30.10R WCI  -8
GRAND FORKS AF FLURRIES  10   1  67 N8        30.10S WCI  -1
DEVILS LAKE    FAIR       5  -1  76 W14       30.08F WCI -12
FARGO          MIX PCPN   9   3  77 NW17      30.11R WCI  -9
CANDO          FAIR       7   0  72 W14       30.09S WCI -10
CAVALIER         N/A      9   3  78 NW10      30.09F WCI  -6
GRAFTON        FAIR       9   3  78 NW10      30.12S HAZE    WCI  -6
GWINNER          N/A     10   3  72 NW20      30.10R WCI  -8
LANGDON        FAIR       7   1  78 W13       30.04S WCI  -9
ROLLA          FAIR       7  -4  61 W15       30.02F WCI -11
WALHALLA       FAIR       9   7  92 NW10      30.09F WCI  -6
$$

CITY           SKY/WX    TMP DP  RH WIND       PRES   REMARKS
ABERDEEN       FAIR      10   2  69 NW16      30.17R WCI  -7
MOBRIDGE       FAIR      10   1  67 NW13      30.14R WCI  -5
BUFFALO          N/A     -2 -10  69 W13       30.00S WCI -20
RAPID CITY     FAIR       0  -6  76 S5        30.11R WCI -10
GLASGOW        FLURRIES  -7 -13  75 W5        30.11F WCI -18
SIDNEY         FAIR       4  -4  69 W16       30.13F WCI -15
WOLF POINT     FAIR      -2  -9  72 W10       30.15S WCI -19
GLENDIVE       FAIR       2  -7  66 SW12      30.11F WCI -15
MILES CITY     FAIR      -5  -7  91 SW7       30.13S WCI -19
BAKER          FAIR      -3  -7  82 W17       30.08S WCI -24
$$

CITY           SKY/WX    TMP DP  RH WIND       PRES   REMARKS
BILLINGS       FAIR       2  -7  66 SW21      30.03S WCI -20
GREAT FALLS    FAIR       1  -9  62 SW16      30.03R WCI -19
$$





USA.gov is the U.S. government's official web portal to all federal, state and local government web resources and services.